"Pseudo-MPEC" for P10OSQ0

Created 2019 Jun 15 19:08:43 UT using Find_Orb

Click here for an explanation of pseudo-MPECs

 
 Astrometry: 
     P10OSQ0  C2019 06 09s8=7Oig0uh10pr^kRdn,14=ST)lwV*;tuDdT9+?#U7Am\s2PZCPnF51
     P10OSQ0  C2019 06 09a)HDO!YoO/9mKG-0f0eWR39%EC9hMa)1d(`d]t32)ZTMg?mQ^J]qF51
     P10OSQ0  C2019 06 09=c`V_3Bx(JAstrometry_redacted;F-YYt_TJfclickuiYLN]0yF51
     P10OSQ0  C2019 06 09TMp:]hereU'!w]?]/Rp)nU7u2bT_jkIiEP_93nuil!HtdWLZ;@jRF51
     P10OSQ0  C2019 06 11.41019 21 22 10.83 +02 57 40.7    ~6BB7 21.2 GVNEOCPI52
     P10OSQ0  C2019 06 11.41567 21 22 10.78 +02 57 46.5    ~6BB7 21.2 GVNEOCPI52
     P10OSQ0  C2019 06 11.44246 21 22 10.49 +02 58 17.0    ~6BB7 20.3 GVNEOCPI52
     P10OSQ0  C2019 06 11.44922 21 22 10.42 +02 58 24.7    ~6BB7 20.7 GVNEOCPI52
     P10OSQ0 KC2019 06 148eeTt$De'heWM$DByghTn6(2GTlbN6oA4uP8to?bZPi9N1lS!di)H21
     P10OSQ0 KC2019 06 14vk8hSf%a[671N1GM;Q.(v[U`%_\pQ$#q]Yrp]E[l.Yx$g$,ABw:GH21
     P10OSQ0 KC2019 06 146v=gT@^l=d=gHbHf.0y,5fduafor=^Xdt.[acVFexplanationUVH21

Station data:
(F51) Pan-STARRS 1, Haleakala  (N20.707235 W156.255910)  US/Hawaii.
   Observers N. Primak, A. Schultz, S. Watters, J. Thiel, T. Goggia. Measurer
   PS1 Science Consortium. 1.8-m Ritchey-Chrétien + CCD.
(H21) Astronomical Research Observatory, Westfield  (N39.483057 W87.968270)
   US/Illinois. 0.76-m f/3.0 astrograph + CCD.
(I52) Steward Observatory, Mt. Lemmon Station  (N32.442547 W110.788920)
   US/Arizona.  Observers T. A. Pruyne, B. M. Africano, E. J. Christensen, G.
   A. Farneth, D. C. Fuls, A. R. Gibbs, A. D. Grauer, H. Groeller, J. A.
   Johnson, R. A. Kowalski, S. M. Larson, G. J. Leonard, R. L. Seaman, F. C.
   Shelly. 1.0-m reflector + CCD.

Orbital elements:  P10OSQ0
   Perihelion 2018 Nov 28.873358 +/- 5.26 TT = 20:57:38 (JD 2458451.373358)
Epoch 2019 Jun 14.0 TT = JDT 2458648.5                        AutoNEOCP
M  48.12725490 +/- 2.2              (J2000 ecliptic)
n   0.24414383 +/- 0.0048           Peri.  319.96070 +/- 1.8
a   2.53535554 +/- 0.0332           Node   278.55383 +/- 0.18
e   0.1752649 +/- 0.00916           Incl.   31.75076 +/- 0.16
P   4.04                   H 17.0   G  0.15   U  9.2  
q 2.09099659 +/- 0.0137    Q 2.97971449 +/- 0.0605
From 11 observations 2019 June 9-14; mean residual 0".13
Residuals in arcseconds: 
190609 F51  .00   .01-    190611 I52  .16-  .05+    190614 H21  .11+  .09-    
190609 F51  .02-  .04-    190611 I52  .02-  .31-    190614 H21  .10-  .33+    
190609 F51  .04-  .05+    190611 I52  .05+  .08+    190614 H21  .02-  .25-    
190609 F51  .05+  .00     190611 I52  .12+  .18+    

Ephemerides (geocentric):
Date (UTC) HH   RA              Dec         delta   r     elong  mag " sig PA
---- -- -- --  -------------   -----------  ------ ------ -----  --- ---- ---
2019 06 15 19  21 21 12.808   +04 19 20.03  1.6309 2.2932 118.2 21.0 .578  85
2019 06 15 20  21 21 12.086   +04 20 06.31  1.6305 2.2933 118.3 21.0 .595  85
2019 06 15 21  21 21 11.361   +04 20 52.59  1.6302 2.2934 118.3 21.0 .613  85
2019 06 15 22  21 21 10.633   +04 21 38.85  1.6299 2.2934 118.3 21.0 .631  85
2019 06 15 23  21 21 09.901   +04 22 25.11  1.6296 2.2935 118.4 21.0 .649  85
2019 06 16 00  21 21 09.166   +04 23 11.37  1.6292 2.2936 118.4 21.0 .667  85
2019 06 16 01  21 21 08.428   +04 23 57.61  1.6289 2.2937 118.4 21.0 .685  85
2019 06 16 02  21 21 07.687   +04 24 43.86  1.6286 2.2937 118.5 21.0 .704  85
2019 06 16 03  21 21 06.943   +04 25 30.09  1.6283 2.2938 118.5 21.0 .722  85
2019 06 16 04  21 21 06.195   +04 26 16.32  1.6279 2.2939 118.5 21.0 .741  84
2019 06 16 05  21 21 05.444   +04 27 02.54  1.6276 2.2940 118.6 21.0 .761  84
2019 06 16 06  21 21 04.690   +04 27 48.75  1.6273 2.2940 118.6 20.9 .780  84
2019 06 16 07  21 21 03.932   +04 28 34.96  1.6270 2.2941 118.6 20.9 .799  84
2019 06 16 08  21 21 03.171   +04 29 21.16  1.6266 2.2942 118.7 20.9 .819  84
2019 06 16 09  21 21 02.408   +04 30 07.36  1.6263 2.2943 118.7 20.9 .839  84
2019 06 16 10  21 21 01.640   +04 30 53.55  1.6260 2.2943 118.7 20.9 .859  84
2019 06 16 11  21 21 00.870   +04 31 39.73  1.6257 2.2944 118.8 20.9 .880  84
2019 06 16 12  21 21 00.096   +04 32 25.90  1.6254 2.2945 118.8 20.9 .900  84
2019 06 16 13  21 20 59.319   +04 33 12.07  1.6250 2.2945 118.8 20.9 .921  84
2019 06 16 14  21 20 58.539   +04 33 58.23  1.6247 2.2946 118.9 20.9 .942  84
2019 06 16 15  21 20 57.755   +04 34 44.38  1.6244 2.2947 118.9 20.9 .963  84
2019 06 16 16  21 20 56.969   +04 35 30.53  1.6241 2.2948 118.9 20.9 .984  84
2019 06 16 17  21 20 56.179   +04 36 16.67  1.6238 2.2948 119.0 20.9 1.01  84
2019 06 16 18  21 20 55.386   +04 37 02.80  1.6234 2.2949 119.0 20.9 1.03  84
2019 06 16 19  21 20 54.589   +04 37 48.93  1.6231 2.2950 119.0 20.9 1.05  84
2019 06 16 20  21 20 53.789   +04 38 35.05  1.6228 2.2951 119.1 20.9 1.07  84
2019 06 16 21  21 20 52.987   +04 39 21.16  1.6225 2.2951 119.1 20.9 1.09  84
2019 06 16 22  21 20 52.180   +04 40 07.27  1.6222 2.2952 119.1 20.9 1.12  84
2019 06 16 23  21 20 51.371   +04 40 53.37  1.6218 2.2953 119.2 20.9 1.14  84
2019 06 17 00  21 20 50.558   +04 41 39.46  1.6215 2.2954 119.2 20.9 1.16  84
2019 06 17 01  21 20 49.742   +04 42 25.54  1.6212 2.2954 119.2 20.9 1.19  84
2019 06 17 02  21 20 48.923   +04 43 11.62  1.6209 2.2955 119.3 20.9 1.21  84
2019 06 17 03  21 20 48.101   +04 43 57.69  1.6206 2.2956 119.3 20.9 1.23  84
2019 06 17 04  21 20 47.275   +04 44 43.75  1.6202 2.2956 119.3 20.9 1.26  84
2019 06 17 05  21 20 46.446   +04 45 29.81  1.6199 2.2957 119.4 20.9 1.28  84
2019 06 17 06  21 20 45.614   +04 46 15.86  1.6196 2.2958 119.4 20.9 1.30  84
2019 06 17 07  21 20 44.778   +04 47 01.90  1.6193 2.2959 119.4 20.9 1.33  84
2019 06 17 08  21 20 43.939   +04 47 47.93  1.6190 2.2959 119.5 20.9 1.35  84
2019 06 17 09  21 20 43.097   +04 48 33.96  1.6187 2.2960 119.5 20.9 1.38  84
2019 06 17 10  21 20 42.252   +04 49 19.98  1.6183 2.2961 119.5 20.9 1.40  84
2019 06 17 11  21 20 41.404   +04 50 05.99  1.6180 2.2962 119.6 20.9 1.43  84
2019 06 17 12  21 20 40.552   +04 50 51.99  1.6177 2.2962 119.6 20.9 1.45  84
2019 06 17 13  21 20 39.697   +04 51 37.99  1.6174 2.2963 119.6 20.9 1.48  84
2019 06 17 14  21 20 38.839   +04 52 23.98  1.6171 2.2964 119.7 20.9 1.50  84
2019 06 17 15  21 20 37.977   +04 53 09.96  1.6168 2.2965 119.7 20.9 1.53  84
2019 06 17 16  21 20 37.112   +04 53 55.93  1.6164 2.2965 119.7 20.9 1.56  84
2019 06 17 17  21 20 36.244   +04 54 41.90  1.6161 2.2966 119.8 20.9 1.58  84
2019 06 17 18  21 20 35.373   +04 55 27.86  1.6158 2.2967 119.8 20.9 1.61  84